TimeCDT,TemperatureF,Dew PointF,Humidity,Sea Level PressureIn,VisibilityMPH,Wind Direction,Wind SpeedMPH,Gust SpeedMPH,PrecipitationIn,Events,Conditions,WindDirDegrees,DateUTC
12:15 AM,37.4,30.2,75,30.17,10.0,South,10.4,-,N/A,,Clear,190,2013-04-04 05:15:00
12:35 AM,36.7,30.2,77,30.16,10.0,South,11.5,-,N/A,,Clear,190,2013-04-04 05:35:00
12:55 AM,36.0,30.2,80,30.16,10.0,South,10.4,-,N/A,,Clear,190,2013-04-04 05:55:00
1:15 AM,36.0,30.2,80,30.15,10.0,South,12.7,-,N/A,,Clear,190,2013-04-04 06:15:00
1:35 AM,35.8,30.6,81,30.16,10.0,SSW,10.4,-,N/A,,Clear,210,2013-04-04 06:35:00
1:55 AM,35.6,30.7,82,30.18,10.0,SW,11.5,-,N/A,,Clear,230,2013-04-04 06:55:00
2:15 AM,34.7,30.6,85,30.18,10.0,WSW,8.1,-,N/A,,Clear,240,2013-04-04 07:15:00
2:35 AM,34.2,30.2,85,30.17,10.0,WSW,8.1,-,N/A,,Clear,240,2013-04-04 07:35:00
2:55 AM,33.8,30.0,86,30.16,10.0,WSW,6.9,-,N/A,,Clear,240,2013-04-04 07:55:00
3:15 AM,32.7,29.5,88,30.15,10.0,West,5.8,-,N/A,,Clear,260,2013-04-04 08:15:00
3:35 AM,32.4,28.9,87,30.16,10.0,WNW,6.9,-,N/A,,Clear,290,2013-04-04 08:35:00
3:55 AM,31.5,28.0,87,30.14,10.0,Calm,Calm,-,N/A,,Clear,0,2013-04-04 08:55:00
4:15 AM,31.1,28.4,90,30.13,10.0,Calm,Calm,-,N/A,,Clear,0,2013-04-04 09:15:00
4:35 AM,30.9,28.2,90,30.13,10.0,SSW,6.9,-,N/A,,Clear,200,2013-04-04 09:35:00
4:55 AM,31.5,29.1,91,30.12,10.0,SW,8.1,-,N/A,,Clear,220,2013-04-04 09:55:00
5:15 AM,30.7,28.0,90,30.12,10.0,South,5.8,-,N/A,,Clear,190,2013-04-04 10:15:00
5:35 AM,29.8,27.9,92,30.12,10.0,Calm,Calm,-,N/A,,Clear,0,2013-04-04 10:35:00
5:55 AM,27.3,25.3,92,30.12,10.0,Calm,Calm,-,N/A,,Clear,0,2013-04-04 10:55:00
6:15 AM,28.4,26.8,94,30.12,7.0,Calm,Calm,-,N/A,,Clear,0,2013-04-04 11:15:00
6:35 AM,28.0,26.4,94,30.12,7.0,NW,3.5,-,N/A,,Clear,310,2013-04-04 11:35:00
6:55 AM,30.2,28.2,92,30.13,10.0,West,5.8,-,N/A,,Clear,260,2013-04-04 11:55:00
7:15 AM,29.3,26.8,90,30.13,10.0,WSW,4.6,-,N/A,,Clear,250,2013-04-04 12:15:00
7:35 AM,28.6,26.2,91,30.13,10.0,SW,4.6,-,N/A,,Clear,230,2013-04-04 12:35:00
7:55 AM,30.4,28.2,92,30.13,10.0,West,3.5,-,N/A,,Clear,260,2013-04-04 12:55:00
8:15 AM,32.0,29.8,92,30.14,10.0,WNW,3.5,-,N/A,,Clear,290,2013-04-04 13:15:00
8:35 AM,33.1,30.9,92,30.14,10.0,Calm,Calm,-,N/A,,Clear,0,2013-04-04 13:35:00
8:55 AM,35.6,31.6,85,30.15,10.0,WNW,4.6,-,N/A,,Clear,290,2013-04-04 13:55:00
9:15 AM,37.8,32.0,80,30.15,10.0,NW,5.8,-,N/A,,Clear,310,2013-04-04 14:15:00
9:35 AM,39.2,32.0,75,30.13,10.0,NW,5.8,-,N/A,,Clear,310,2013-04-04 14:35:00
9:55 AM,42.3,32.9,69,30.14,10.0,NNW,6.9,-,N/A,,Clear,340,2013-04-04 14:55:00
10:15 AM,44.6,33.6,65,30.14,10.0,North,8.1,-,N/A,,Clear,10,2013-04-04 15:15:00
10:35 AM,46.6,34.0,62,30.14,10.0,North,8.1,-,N/A,,Clear,360,2013-04-04 15:35:00
10:55 AM,48.0,34.0,58,30.15,10.0,North,6.9,-,N/A,,Clear,10,2013-04-04 15:55:00
11:35 AM,51.3,34.7,53,30.15,10.0,North,6.9,-,N/A,,Clear,360,2013-04-04 16:35:00
11:55 AM,51.8,34.0,51,30.15,10.0,NNW,4.6,-,N/A,,Clear,330,2013-04-04 16:55:00
12:15 PM,53.6,34.2,48,30.15,10.0,NE,6.9,-,N/A,,Clear,40,2013-04-04 17:15:00
12:35 PM,54.7,33.8,45,30.15,10.0,North,3.5,-,N/A,,Clear,360,2013-04-04 17:35:00
12:55 PM,56.5,33.8,42,30.14,10.0,North,3.5,-,N/A,,Clear,10,2013-04-04 17:55:00
1:15 PM,57.6,33.3,40,30.13,10.0,NNE,9.2,-,N/A,,Clear,20,2013-04-04 18:15:00
1:35 PM,57.7,32.7,39,30.12,10.0,NE,10.4,-,N/A,,Clear,40,2013-04-04 18:35:00
1:55 PM,59.0,32.4,37,30.11,10.0,ENE,5.8,-,N/A,,Clear,60,2013-04-04 18:55:00
2:15 PM,60.1,32.0,35,30.11,10.0,ESE,3.5,-,N/A,,Clear,120,2013-04-04 19:15:00
2:35 PM,60.8,32.4,34,30.10,10.0,NNE,6.9,-,N/A,,Clear,30,2013-04-04 19:35:00
2:55 PM,61.3,32.2,33,30.09,10.0,East,9.2,-,N/A,,Clear,90,2013-04-04 19:55:00
3:15 PM,62.1,32.4,33,30.09,10.0,NE,4.6,-,N/A,,Clear,50,2013-04-04 20:15:00
3:35 PM,62.4,32.2,32,30.08,10.0,East,5.8,-,N/A,,Clear,80,2013-04-04 20:35:00
3:55 PM,63.1,32.9,32,30.08,10.0,Calm,Calm,-,N/A,,Clear,0,2013-04-04 20:55:00
4:15 PM,63.3,32.9,32,30.07,10.0,ENE,5.8,-,N/A,,Clear,70,2013-04-04 21:15:00
4:35 PM,63.7,32.9,32,30.07,10.0,ENE,3.5,-,N/A,,Clear,70,2013-04-04 21:35:00
4:55 PM,63.7,32.7,31,30.06,10.0,SE,5.8,-,N/A,,Clear,130,2013-04-04 21:55:00
5:15 PM,64.6,32.4,30,30.06,10.0,ENE,5.8,-,N/A,,Clear,70,2013-04-04 22:15:00
5:35 PM,64.0,32.0,30,30.06,10.0,East,5.8,-,N/A,,Clear,80,2013-04-04 22:35:00
5:55 PM,63.9,31.8,30,30.06,10.0,ENE,6.9,-,N/A,,Clear,60,2013-04-04 22:55:00
6:15 PM,64.2,32.0,30,30.06,10.0,East,6.9,-,N/A,,Clear,100,2013-04-04 23:15:00
6:35 PM,63.3,31.3,30,30.06,10.0,East,8.1,-,N/A,,Clear,90,2013-04-04 23:35:00
6:55 PM,63.3,31.6,31,30.06,10.0,East,6.9,-,N/A,,Clear,100,2013-04-04 23:55:00
7:15 PM,62.4,31.6,31,30.07,10.0,ESE,8.1,-,N/A,,Clear,110,2013-04-05 00:15:00
7:35 PM,60.8,31.5,33,30.07,10.0,East,6.9,-,N/A,,Clear,100,2013-04-05 00:35:00
7:55 PM,57.9,31.1,36,30.07,10.0,East,10.4,-,N/A,,Clear,90,2013-04-05 00:55:00
8:15 PM,54.9,31.6,41,30.07,10.0,East,8.1,-,N/A,,Clear,100,2013-04-05 01:15:00
8:35 PM,54.9,31.1,40,30.07,10.0,ESE,8.1,-,N/A,,Clear,110,2013-04-05 01:35:00
8:55 PM,54.5,31.1,41,30.07,10.0,ESE,8.1,-,N/A,,Clear,110,2013-04-05 01:55:00
9:15 PM,53.8,31.3,42,30.08,10.0,ESE,8.1,-,N/A,,Clear,110,2013-04-05 02:15:00
9:35 PM,52.5,31.6,45,30.08,10.0,ESE,8.1,-,N/A,,Clear,110,2013-04-05 02:35:00
9:55 PM,50.4,31.6,49,30.10,10.0,ESE,6.9,-,N/A,,Clear,110,2013-04-05 02:55:00
10:15 PM,50.0,31.5,49,30.10,10.0,East,8.1,-,N/A,,Clear,100,2013-04-05 03:15:00
10:35 PM,50.0,31.5,49,30.10,10.0,ESE,9.2,-,N/A,,Clear,120,2013-04-05 03:35:00
10:55 PM,48.6,31.6,52,30.09,10.0,ESE,9.2,-,N/A,,Clear,110,2013-04-05 03:55:00
11:15 PM,48.0,32.0,54,30.09,10.0,ESE,5.8,-,N/A,,Clear,120,2013-04-05 04:15:00
11:35 PM,47.3,32.2,56,30.09,10.0,SE,8.1,-,N/A,,Clear,130,2013-04-05 04:35:00
11:55 PM,43.9,32.0,63,30.09,10.0,SSE,6.9,-,N/A,,Clear,150,2013-04-05 04:55:00